GFSNGP_500_rhum_000.txt.gz
RH
67 71 68 60 58 57 58 55 53 61 56 64 60 57 53 54 54 53 48 48 53 55 58 63 59 52 61 70 46 58 69 89 99 100 100 88 30 6 9 34 92 100 100 100
57 63 62 62 68 66 68 72 68 64 65 64 53 47 49 58 53 50 59 62 66 63 59 57 52 50 56 46 55 100 100 100 100 76 44 23 6 11 53 100 100 100 100 100
65 63 61 66 63 72 69 72 72 63 55 50 52 55 58 61 59 61 61 60 53 48 50 43 43 51 71 83 100 100 98 48 59 60 31 5 15 58 100 100 100 100 100 100
65 67 66 78 65 64 65 69 76 64 57 55 54 52 57 62 55 60 49 48 49 44 39 44 66 81 100 100 100 97 79 53 91 87 8 21 74 99 97 99 100 100 100 98
63 67 68 74 80 75 67 59 66 63 60 57 50 38 52 65 58 52 51 52 49 48 47 62 83 92 99 95 90 92 96 49 51 14 50 100 98 98 100 98 98 98 97 91
70 79 69 81 83 77 68 57 57 56 55 51 53 44 41 43 49 48 45 50 46 41 56 100 100 100 100 100 100 98 55 30 20 60 87 80 82 86 88 90 67 32 22 22
86 81 70 80 82 75 61 52 50 60 59 55 49 49 46 51 72 57 45 40 40 54 98 100 100 100 100 90 79 45 22 25 62 80 77 80 83 75 37 25 25 24 21 17
76 84 81 80 76 66 63 60 72 70 63 56 63 76 64 58 60 53 42 33 41 72 100 100 100 100 96 54 31 24 28 76 84 88 88 77 35 26 24 18 15 14 14 16
72 75 91 85 82 73 73 76 74 70 62 94 83 85 79 59 43 36 26 41 99 100 100 100 65 48 42 31 26 35 75 88 94 91 49 29 25 18 15 14 17 20 24 28
65 78 84 81 89 84 96 90 82 76 70 66 79 94 51 39 29 16 22 34 86 100 81 40 41 35 30 26 28 72 89 95 82 39 29 21 16 15 19 23 27 30 33 35
70 77 72 78 79 84 87 87 82 71 64 59 46 39 32 15 9 22 44 82 69 45 39 35 32 30 27 29 74 89 95 79 41 26 20 16 18 21 29 37 40 40 51 69
68 70 80 73 73 77 82 77 59 39 37 42 36 22 9 10 21 33 36 43 46 39 29 31 31 27 28 88 95 95 80 38 26 21 18 19 21 35 52 61 77 89 100 95
73 78 81 79 78 81 70 58 50 54 52 35 13 10 14 20 27 38 41 42 34 25 30 32 27 26 78 99 98 85 42 28 24 20 21 24 30 38 46 99 100 94 97 100
86 78 76 76 70 62 55 56 60 47 22 14 15 20 26 34 38 42 46 32 22 27 31 26 26 75 100 100 92 48 34 28 25 22 23 29 36 45 81 98 100 100 100 100
78 80 76 65 60 61 63 53 36 24 17 19 26 33 35 37 47 43 25 22 26 28 28 24 58 99 100 97 58 44 35 32 28 23 24 30 38 86 95 99 100 100 100 94
75 70 68 67 64 58 47 30 20 21 25 30 35 41 49 47 31 23 26 28 26 25 26 40 99 100 100 63 48 45 40 36 34 24 24 30 64 86 94 100 100 100 99 100
72 65 60 60 50 37 24 23 28 31 38 47 46 42 38 23 22 29 25 21 24 31 60 100 100 100 78 43 52 52 48 43 42 29 24 37 65 76 89 100 100 100 100 100
58 62 58 36 23 20 19 27 39 42 46 45 41 28 21 23 23 16 17 23 40 91 100 100 100 100 54 31 49 55 60 54 52 40 26 36 60 69 80 95 96 100 100 100
65 39 25 22 23 30 36 42 46 44 43 33 22 26 26 20 17 22 28 49 100 100 100 100 100 85 39 24 29 43 50 65 64 57 33 32 52 62 72 86 95 100 100 100
28 25 23 29 38 44 48 51 44 36 23 24 30 23 19 24 32 40 67 100 100 100 100 100 100 66 32 25 30 56 50 65 73 73 52 32 38 54 62 80 91 96 100 100
26 28 33 44 45 40 40 36 25 20 28 28 21 22 32 41 55 72 99 100 98 100 100 100 100 56 28 28 35 76 60 62 82 81 79 50 35 35 45 60 79 90 98 100
38 46 40 34 34 32 25 23 30 31 24 22 24 38 47 54 58 84 100 98 100 100 100 100 99 51 46 38 67 90 63 69 87 85 87 84 59 42 36 38 53 75 88 95
36 33 32 30 27 25 25 32 26 23 22 29 38 48 44 43 55 93 95 92 97 100 100 100 100 92 69 68 94 96 68 89 94 92 88 90 89 75 58 46 40 44 71 87
34 30 29 34 35 36 30 22 22 28 31 50 44 46 41 40 76 88 89 94 97 100 100 100 100 100 100 100 100 85 94 99 96 90 89 88 90 93 86 79 60 47 46 67
30 33 39 39 33 26 26 25 27 35 42 49 45 42 39 56 88 88 91 91 99 100 100 100 100 100 100 100 96 96 88 92 91 90 84 85 82 84 93 93 88 77 57 54
42 39 33 31 35 36 31 22 29 36 32 30 40 40 35 66 84 92 95 98 100 100 100 99 100 100 100 99 94 76 74 84 88 87 83 80 75 75 85 92 91 90 84 63
35 41 43 42 42 39 32 46 50 33 27 19 21 31 29 47 90 98 100 100 99 92 96 100 100 100 99 95 92 80 76 81 88 88 84 80 75 74 79 82 81 85 92 80

GFSNGP_500_rhum_006.txt.gz
RH
47 48 44 48 61 58 61 64 68 79 77 74 75 74 73 70 67 66 60 56 55 54 53 58 58 56 52 70 77 99 99 74 12 12 22 28 25 28 25 22 28 68 83 82
39 41 44 42 57 66 65 74 78 83 86 84 75 69 68 63 58 54 52 53 50 49 50 51 52 58 70 87 100 100 85 13 16 26 30 26 25 22 24 31 85 91 84 78
34 39 42 48 48 52 64 74 79 82 76 72 68 64 59 56 55 51 44 44 45 49 54 52 81 100 97 60 41 18 14 23 32 35 27 18 21 25 41 89 95 84 60 38
33 41 40 48 52 56 63 72 72 69 64 57 55 53 49 41 41 43 48 52 55 57 57 57 57 57 46 22 15 20 33 43 34 26 18 22 24 64 100 95 71 43 26 22
37 38 41 50 46 54 55 57 52 59 53 54 50 44 50 48 53 57 60 62 62 61 63 58 44 31 21 20 26 41 39 37 27 19 24 25 82 100 90 57 30 25 22 18
40 48 51 55 48 48 46 49 52 54 51 50 55 50 54 57 64 70 70 66 65 64 56 44 32 24 23 33 43 42 42 30 22 27 22 77 100 78 51 29 27 22 18 20
49 54 55 62 58 52 55 53 56 56 58 61 57 59 58 69 76 74 69 67 62 54 43 29 24 26 39 44 42 42 30 27 28 24 66 100 81 51 32 29 23 20 25 39
51 61 62 66 57 61 58 59 60 60 67 64 65 70 76 78 74 70 64 61 54 37 25 25 32 40 45 40 36 28 29 31 28 39 99 90 57 37 32 28 21 25 52 76
65 69 74 66 64 66 63 61 65 73 74 76 76 72 72 74 69 63 62 48 30 24 25 31 40 39 32 28 26 29 31 29 30 96 98 64 44 36 35 27 22 46 68 81
62 78 66 69 73 76 76 81 83 84 79 73 80 78 75 67 64 57 39 26 21 20 25 27 28 28 24 25 26 27 30 32 93 100 65 50 40 40 37 28 28 56 74 86
71 82 78 80 82 81 79 80 82 77 86 83 73 70 66 64 50 39 26 14 13 19 21 23 20 20 23 19 25 34 38 95 100 68 54 49 44 42 40 27 35 55 78 91
77 71 71 70 73 81 86 89 92 84 73 71 71 68 61 48 35 18 11 12 17 23 21 18 21 17 15 18 27 45 100 100 70 55 54 51 49 46 43 27 38 55 83 99
73 71 72 73 77 82 86 80 73 73 75 69 68 55 46 27 11 12 17 21 23 19 20 20 16 18 20 31 84 100 100 74 48 47 55 55 54 51 47 28 41 67 88 100
72 76 71 72 76 77 76 74 73 72 69 64 54 38 17 15 17 20 22 21 20 21 18 18 22 30 67 100 99 100 88 39 30 38 64 62 60 57 52 29 44 71 94 100
76 76 78 80 82 80 76 74 69 63 60 49 26 15 16 19 20 22 20 19 21 18 20 23 42 88 100 93 100 99 69 37 28 51 69 67 65 64 60 35 36 68 95 98
87 84 84 83 80 75 69 64 62 56 35 17 13 14 17 19 20 18 19 20 17 21 24 45 90 99 98 90 98 94 62 38 31 62 75 71 71 69 67 51 29 55 84 100
88 86 78 69 67 68 68 61 44 22 13 12 15 15 17 17 17 21 19 18 24 29 37 84 98 100 88 78 93 88 52 40 31 76 80 76 74 73 68 65 40 32 67 93
76 70 69 72 70 64 52 32 16 13 16 15 15 15 15 19 22 19 18 23 34 37 48 83 99 100 87 76 93 96 66 49 62 85 80 76 72 71 69 68 63 40 36 74
72 70 72 69 59 42 24 14 16 18 17 16 16 15 21 23 21 22 22 35 39 41 45 64 92 100 95 79 90 100 84 68 84 88 79 69 64 70 69 64 66 66 44 36
71 72 63 50 33 19 21 22 19 17 17 17 19 23 21 24 28 25 33 44 42 48 45 66 89 95 95 86 84 99 98 94 97 87 72 57 56 67 70 62 62 66 69 53
67 56 41 24 18 24 26 22 19 17 18 24 25 22 24 26 23 24 34 44 44 45 52 84 95 99 100 92 88 100 100 100 98 83 66 59 54 65 68 62 56 57 64 71
47 32 27 27 25 25 24 21 20 21 25 26 25 27 28 22 26 32 37 43 44 45 72 93 94 94 97 88 100 100 100 100 93 80 71 64 58 63 70 64 57 54 56 68
26 29 29 28 27 23 22 22 25 30 28 30 32 29 26 33 34 23 32 48 46 44 74 90 95 97 91 97 100 100 100 99 92 85 73 68 70 64 74 71 62 55 53 60
29 33 32 31 26 25 24 26 34 34 35 37 41 36 31 33 51 35 32 44 48 44 81 95 93 95 96 98 94 97 100 100 96 87 82 77 73 72 71 82 74 66 61 63
36 35 30 29 26 26 32 37 36 37 41 46 50 48 47 58 51 57 63 55 45 45 64 89 99 100 100 80 87 100 100 100 98 92 83 84 80 82 73 83 83 74 67 64
37 35 31 28 27 34 41 42 40 44 46 48 56 55 54 58 69 72 83 91 94 97 96 98 100 99 90 80 85 100 100 100 95 86 75 80 84 89 80 82 87 82 74 69
35 31 30 28 33 40 43 49 52 55 54 51 53 59 56 54 56 74 88 90 93 93 93 100 100 90 98 93 100 100 100 100 94 92 91 90 91 96 85 88 91 88 82 77

GFSNGP_500_rhum_009.txt.gz
RH
38 38 31 34 41 43 48 50 49 59 67 80 80 74 69 63 59 56 48 42 35 33 32 38 43 47 47 51 53 54 48 41 30 22 20 23 27 27 22 15 19 24 52 85
41 33 28 30 37 38 41 49 52 61 66 61 63 61 54 45 44 40 38 37 36 37 40 40 40 47 55 58 54 47 35 24 19 22 32 34 31 25 16 21 23 78 86 78
37 28 26 30 32 40 41 42 51 52 47 47 52 44 44 40 42 41 38 37 36 33 31 46 61 63 59 52 40 29 19 17 24 36 39 36 27 20 23 26 77 91 70 40
24 22 29 32 38 46 46 48 47 49 46 51 49 49 48 44 43 38 35 40 42 44 61 69 63 59 46 34 24 20 23 28 34 44 37 28 24 24 25 60 89 68 38 31
24 25 36 37 40 54 58 57 52 56 59 56 56 55 57 47 44 42 46 50 52 59 63 62 55 44 35 20 13 24 38 42 46 30 26 27 28 28 50 94 74 40 34 32
23 35 42 44 48 52 56 62 60 60 52 53 56 55 58 53 58 64 65 62 56 55 60 53 44 29 12 16 29 37 36 23 25 26 28 28 31 50 100 81 47 37 37 30
24 44 46 48 49 51 61 75 70 64 62 63 61 53 51 53 58 54 53 58 60 61 53 42 20 11 14 20 25 24 30 26 30 28 41 38 66 100 82 52 41 39 38 25
38 49 48 50 52 52 61 66 65 69 65 57 52 53 57 57 55 60 63 65 60 52 38 15 10 12 15 16 19 21 30 27 34 71 43 87 100 81 54 46 44 42 37 25
50 58 70 60 62 61 64 72 68 63 57 53 54 58 58 57 65 68 66 58 50 32 10 9 10 12 13 13 19 20 17 20 43 47 93 100 76 55 51 49 47 44 28 31
40 70 66 66 67 63 67 62 59 59 59 58 59 62 66 67 65 62 56 48 22 8 10 10 12 13 15 18 16 16 20 24 42 100 100 63 52 55 54 53 48 44 25 49
42 71 72 81 70 69 66 64 64 63 62 66 69 71 64 63 58 53 42 14 9 11 11 12 13 17 17 16 17 20 33 71 96 98 58 37 56 60 61 57 50 43 27 68
68 80 86 80 80 72 67 72 67 68 69 70 67 59 56 52 52 33 10 10 11 12 14 15 18 16 18 20 33 64 86 89 94 58 31 46 66 65 61 58 55 41 30 75
82 89 90 88 82 83 83 76 73 70 66 58 56 56 55 49 26 10 12 12 12 14 17 20 16 18 20 49 83 84 86 93 84 47 37 55 71 70 64 52 50 46 30 69
98 98 92 89 81 78 80 75 69 64 59 58 56 54 46 17 12 13 13 14 15 18 21 18 19 22 49 83 82 85 82 91 80 60 43 55 74 71 64 58 58 52 31 51
92 91 87 91 92 84 80 76 67 60 56 57 54 38 14 12 13 13 14 15 19 22 20 20 26 34 78 85 85 84 76 85 78 58 44 70 77 72 59 54 58 56 44 32
86 85 84 87 86 88 82 71 65 61 59 51 32 12 13 14 14 14 16 22 22 22 23 31 33 41 90 93 92 90 79 88 86 67 57 78 79 67 51 51 55 52 54 37
82 81 84 87 92 85 75 68 66 58 49 22 12 13 14 14 14 16 20 22 24 27 29 43 41 43 66 93 100 100 83 81 92 72 74 86 82 60 49 49 56 50 51 52
96 92 92 99 91 78 70 66 60 42 16 12 13 14 14 15 16 20 20 22 25 22 34 46 47 44 55 78 94 100 96 86 95 90 92 90 81 60 50 49 56 49 45 48
98 100 100 91 77 71 64 56 34 16 15 15 14 14 16 18 21 22 23 23 18 19 40 45 47 46 60 90 98 100 100 98 100 99 98 94 77 61 54 52 56 51 47 44
94 98 87 78 70 63 48 26 18 16 19 17 16 17 18 24 23 25 24 20 25 29 42 46 43 62 90 97 94 100 100 100 100 100 100 91 76 64 57 57 60 59 51 46
94 83 74 68 60 40 25 21 19 18 20 20 19 19 24 25 27 30 24 26 25 28 49 47 44 68 90 93 96 98 100 100 100 100 98 92 80 69 63 63 62 68 61 57
81 74 69 52 32 23 23 22 21 21 21 21 21 28 29 27 31 34 40 34 32 28 46 47 45 78 87 88 92 98 100 100 100 100 98 95 83 73 70 67 67 68 75 68
78 64 40 29 27 25 22 23 22 23 22 23 29 34 32 33 38 36 43 59 45 50 46 46 50 63 78 97 98 95 86 93 100 100 100 96 83 68 68 70 71 69 79 78
43 35 33 30 27 26 22 21 21 24 24 26 35 40 40 34 46 49 50 58 62 60 68 75 66 77 97 99 100 94 80 90 100 99 98 91 83 78 78 77 78 73 81 83
36 33 31 30 29 25 21 21 23 24 25 29 38 43 48 50 47 52 52 53 64 70 75 84 89 90 88 95 100 100 96 100 100 96 96 92 90 82 83 78 78 74 83 86
34 33 32 30 24 23 22 22 24 27 31 36 46 52 59 61 59 61 60 53 59 71 80 81 85 87 87 95 100 100 100 100 100 99 100 99 97 89 90 96 87 76 84 89
35 30 29 26 25 23 23 26 29 38 47 52 52 64 64 65 64 75 81 65 58 66 72 75 82 89 97 100 100 100 100 100 100 100 100 100 99 100 99 99 94 82 86 94

GFSNGP_500_rhum_012.txt.gz
RH
30 27 28 23 26 28 30 36 41 42 44 69 53 63 40 53 49 43 47 47 47 39 34 35 37 39 41 47 52 55 49 40 22 7 7 9 18 17 20 20 20 21 22 27
23 22 21 20 29 29 28 33 44 49 53 58 44 43 48 45 45 47 47 45 40 38 37 39 42 43 44 54 52 48 34 12 11 17 24 17 21 20 22 25 23 22 32 100
20 20 19 19 27 31 31 34 46 52 52 45 49 50 54 45 48 56 48 43 39 39 38 35 39 45 49 50 46 25 8 8 14 28 95 27 100 53 44 21 28 52 100 82
21 20 20 17 24 34 35 39 50 58 61 61 66 68 59 52 56 46 41 40 43 42 37 35 41 46 43 41 21 9 10 10 15 25 42 43 100 100 32 33 89 100 65 50
21 20 18 15 18 37 36 46 44 59 63 69 65 63 58 50 46 42 42 43 44 44 44 45 37 37 39 21 9 11 11 11 15 61 35 72 100 100 33 92 97 62 53 48
22 21 18 17 22 32 39 41 42 47 51 52 53 50 51 48 50 52 51 52 44 44 37 40 43 40 19 10 11 11 10 11 16 18 98 100 96 32 82 84 59 55 54 52
21 21 19 18 25 36 44 46 58 60 57 58 54 52 50 51 51 47 45 45 42 41 43 44 38 16 10 11 9 10 12 14 14 18 100 100 46 94 71 54 57 55 56 51
23 23 20 21 27 31 46 69 55 62 64 63 59 53 53 53 53 51 49 45 46 44 44 35 14 10 10 9 9 14 14 14 13 16 23 47 84 55 44 62 61 57 51 48
23 24 25 30 28 32 61 69 70 70 68 66 61 61 62 57 55 53 49 47 45 44 33 13 11 10 9 11 14 14 15 15 26 51 80 85 56 40 66 66 59 52 46 44
25 27 30 31 34 45 67 82 81 78 70 64 56 61 64 62 61 54 52 48 45 29 12 11 10 10 13 18 16 16 21 42 67 77 85 67 42 50 67 67 60 50 44 39
29 32 32 41 56 68 78 86 86 76 70 66 72 74 68 68 63 58 52 48 31 13 11 9 10 14 19 19 17 20 51 66 70 82 85 69 52 51 71 65 57 48 43 40
34 35 45 57 66 77 93 93 80 71 67 72 75 77 77 72 63 56 50 30 14 11 9 10 13 19 18 20 23 42 67 73 68 76 87 72 59 62 71 67 51 46 45 48
38 47 54 71 89 92 93 84 76 72 78 81 88 88 78 66 59 52 28 14 12 9 10 13 18 19 21 28 32 73 77 74 68 77 85 74 62 69 76 62 46 42 42 39
64 64 68 86 96 94 89 85 83 83 87 95 98 84 72 62 52 28 14 12 10 10 12 17 19 23 22 36 36 78 93 79 75 76 83 83 72 75 77 58 48 39 37 33
68 77 90 100 97 94 89 86 85 91 98 100 90 74 62 51 29 16 12 10 9 12 17 17 20 21 26 39 39 50 85 95 86 83 81 89 83 85 81 61 49 41 42 32
79 93 100 99 91 84 86 85 90 96 99 90 75 62 48 29 18 14 11 10 12 17 16 18 16 16 31 42 43 43 56 82 88 89 94 93 94 93 80 62 50 43 46 35
95 94 92 87 82 84 84 89 97 97 90 76 62 48 28 19 15 12 12 14 19 18 20 17 15 18 38 45 47 45 70 88 94 95 100 100 97 97 77 65 52 46 48 46
87 88 86 85 86 84 92 98 99 92 77 65 50 30 22 16 12 12 14 19 20 21 23 19 21 26 44 42 43 72 90 90 91 95 99 100 98 94 82 69 56 50 49 54
97 85 93 99 96 100 100 100 91 78 68 50 32 23 17 14 14 16 20 26 23 24 26 22 20 34 42 42 65 84 90 92 94 97 99 99 98 92 84 71 59 53 52 55
100 100 100 100 100 100 97 83 74 66 44 31 23 18 15 15 18 21 24 27 30 30 32 30 28 41 43 40 61 82 89 88 93 97 98 98 97 93 87 72 59 56 56 55
100 100 100 100 100 92 85 75 54 38 29 24 20 17 15 18 22 24 30 28 33 35 38 43 41 39 46 46 68 82 89 93 90 84 94 100 98 92 84 72 63 58 58 58
98 100 99 99 95 87 66 49 36 28 25 22 20 19 20 22 24 27 36 39 37 40 42 49 54 55 55 50 53 89 91 89 83 80 90 99 99 95 85 76 66 63 60 60
98 97 93 85 66 47 36 32 28 26 23 22 21 21 21 22 28 34 34 48 46 45 46 48 62 67 77 84 89 90 88 87 93 93 98 100 98 95 88 82 73 72 66 62
87 70 52 40 36 34 32 30 27 25 23 23 23 24 26 26 34 51 54 53 51 51 52 49 58 67 70 78 84 86 83 83 95 100 100 100 100 100 96 91 84 80 78 68
41 37 36 36 36 36 35 30 26 24 22 23 24 30 39 49 52 53 61 64 61 71 77 58 56 61 64 74 82 89 88 90 98 95 95 98 99 99 97 94 94 92 91 81
36 38 39 42 41 35 29 26 23 25 28 36 40 51 57 65 71 72 71 71 72 83 84 84 78 68 70 78 84 93 100 100 100 99 99 100 100 100 99 100 97 95 92 93
43 43 40 36 31 27 26 30 41 42 56 56 59 69 76 80 85 85 81 86 95 90 84 84 87 88 92 90 87 89 96 100 100 100 100 100 100 100 100 100 100 99 95 93